Dewpoint
56 57 57 57 57 57 57 57 57 57 57 57 56 56 56 56 56 56 55 55 55 56 55 55 55 55 55 55 56 56 57 54 50 47 46 36 58 67 63 63 64 66 70 54 49 43 43 47 49 52 56 58 56 57 61 63 63 64 59 54 52 54 53 54 54 55 56 56 59 60 60 60 59 60 61 61 59 60 56 56 57 57 56 57 59 59 60 60
57 57 57 57 57 57 57 57 57 56 56 56 56 56 56 56 56 56 56 55 55 54 54 55 55 55 55 56 56 57 56 53 50 48 45 58 65 63 64 66 68 70 70 49 43 39 43 47 49 51 55 56 56 57 60 63 62 62 57 55 51 54 60 62 62 61 56 55 60 59 60 59 59 61 61 58 58 57 54 55 57 57 59 60 60 60 61 62
56 57 57 57 57 57 57 57 56 56 55 55 55 55 55 55 55 55 55 54 54 54 55 55 55 55 55 56 57 57 55 51 48 41 51 69 65 64 66 67 67 71 60 45 39 39 44 48 50 52 55 54 54 57 58 62 61 61 62 53 56 61 61 64 65 64 65 59 59 59 59 59 60 60 58 58 55 55 53 54 55 56 56 59 61 61 61 62
56 57 57 57 56 56 56 56 56 56 56 56 56 55 55 55 55 54 54 54 54 55 55 55 55 55 56 57 57 56 54 49 41 37 58 70 66 66 66 68 68 68 55 42 37 36 41 48 51 53 55 54 55 55 54 60 60 59 59 57 59 60 58 62 65 66 63 60 59 60 59 59 59 59 58 57 54 56 55 53 54 54 57 59 61 60 61 61
56 56 56 56 56 56 56 56 56 57 56 56 55 55 55 55 55 55 55 54 55 55 55 55 56 56 56 57 58 55 52 42 33 36 63 68 67 67 70 68 68 57 43 38 35 33 40 49 52 53 55 53 50 52 51 57 60 61 58 61 62 60 60 64 66 66 62 60 60 59 58 58 60 59 59 56 52 52 54 53 54 56 57 59 60 60 60 60
56 56 56 56 56 56 56 56 56 56 56 55 55 55 55 55 55 55 55 55 54 54 54 55 55 56 56 58 56 54 48 15 37 51 70 66 68 69 68 68 68 41 34 32 31 32 41 50 54 53 52 50 51 49 54 53 59 58 60 61 64 63 62 66 66 66 63 61 60 59 58 60 59 59 59 57 57 59 57 54 56 57 58 59 60 60 59 59
56 56 56 56 56 56 56 56 56 55 55 55 55 55 55 55 55 55 55 55 55 54 55 55 56 56 58 58 55 50 36 37 43 63 67 67 68 70 70 68 62 32 32 31 30 32 42 50 53 50 50 47 47 44 51 54 55 54 56 61 64 66 64 66 67 66 61 61 60 60 60 59 59 58 60 57 59 61 58 55 58 58 59 59 59 59 59 60
56 56 56 56 56 56 55 55 56 56 56 56 56 56 55 55 55 55 55 55 55 55 55 55 56 57 58 54 51 38 33 38 50 64 68 68 64 62 61 52 40 26 27 27 29 34 42 48 51 49 46 47 48 42 54 54 56 59 59 62 64 65 66 64 64 64 63 62 63 62 60 60 59 59 59 59 59 57 55 57 59 59 59 59 59 59 60 61
55 55 55 56 55 55 56 56 56 56 56 56 56 55 55 55 55 55 55 55 55 55 55 55 56 57 58 55 44 24 38 47 54 58 55 53 47 46 41 37 35 26 22 22 26 33 41 46 49 48 45 44 43 45 56 56 58 59 60 62 64 64 65 64 65 65 64 64 63 60 60 61 62 59 60 59 59 59 57 58 59 59 59 59 58 59 60 61
55 55 55 55 56 56 56 56 56 56 56 56 55 55 55 55 55 55 55 55 55 55 55 56 56 57 56 52 34 27 40 52 55 59 49 54 47 38 36 34 33 30 21 19 21 26 38 41 47 47 45 41 48 55 58 57 59 60 62 63 64 64 64 64 65 65 66 65 62 61 61 61 60 59 56 61 58 57 57 58 59 59 58 58 58 59 60 60
55 55 55 55 56 56 56 56 56 56 56 55 55 55 55 55 55 55 55 55 55 55 55 56 57 57 51 45 34 33 43 42 49 56 54 47 41 36 34 30 31 24 18 17 17 20 32 36 45 44 42 47 55 59 59 60 60 63 62 61 62 65 65 64 64 63 66 62 66 61 60 60 60 61 52 61 59 56 57 58 58 57 58 58 58 59 61 61
55 55 55 55 55 55 55 56 55 55 55 55 55 55 55 55 55 55 55 55 55 55 56 55 57 55 52 44 28 35 40 41 48 52 52 44 38 38 35 28 26 23 21 18 15 15 25 36 43 39 35 36 41 56 60 61 61 63 62 59 61 62 62 64 62 63 66 61 65 62 61 59 58 56 60 58 59 58 57 57 57 57 57 59 58 59 61 61
55 55 55 55 55 55 55 55 55 55 55 55 55 55 55 55 55 55 55 55 56 56 57 57 58 55 49 33 28 36 36 43 46 50 49 44 39 39 39 35 29 29 25 20 16 18 19 34 40 38 34 34 50 56 62 61 63 64 64 60 60 59 61 64 64 64 64 63 65 64 52 54 57 60 60 62 59 57 58 57 56 56 56 57 58 59 60 61
55 55 55 55 55 55 56 55 55 55 55 55 54 54 54 54 55 55 55 55 55 55 57 58 57 54 51 25 29 30 37 43 46 46 41 38 32 34 39 39 36 33 31 26 22 21 18 34 36 35 31 49 57 60 59 59 62 58 61 62 56 57 57 63 63 63 61 63 64 65 54 55 58 61 61 61 59 56 56 54 54 56 55 56 57 58 60 60
55 55 55 55 55 55 55 55 55 55 55 54 54 54 54 54 54 55 55 55 56 56 57 58 56 53 40 27 33 39 53 45 43 41 38 32 27 25 30 37 36 33 30 28 23 25 20 31 31 31 33 56 59 58 56 56 57 58 55 55 54 53 57 61 63 63 59 61 64 61 54 56 57 59 62 62 61 58 55 54 53 54 55 55 56 58 58 59
54 54 54 55 55 55 55 55 55 55 54 54 53 54 54 54 55 55 55 56 57 58 56 57 55 50 44 25 42 57 46 43 31 33 37 33 28 16 20 28 30 29 27 25 25 24 23 30 32 34 47 55 58 55 54 54 54 55 52 52 51 53 56 58 62 64 63 62 63 60 54 57 57 59 61 62 62 59 57 54 54 54 55 54 55 57 57 58
54 54 54 54 55 55 55 55 55 54 54 53 53 55 55 55 57 56 57 58 57 57 55 50 49 49 24 31 37 40 27 30 33 37 38 37 31 19 20 20 18 20 22 19 23 23 25 30 38 37 46 51 55 55 51 54 47 50 50 50 53 51 55 55 62 63 63 61 57 59 55 56 56 57 60 61 62 60 57 56 55 55 54 55 55 55 57 59
54 54 54 54 54 55 55 55 55 54 53 53 53 56 57 58 58 58 58 57 54 53 53 52 50 45 25 32 26 26 29 31 32 32 37 35 28 20 19 18 18 16 16 19 24 23 33 33 41 40 48 46 53 52 44 48 45 52 50 50 52 51 51 55 56 59 61 62 59 58 58 57 56 57 59 60 62 60 57 56 54 55 54 55 53 55 57 58
54 54 54 54 54 55 55 55 54 54 53 53 54 57 58 59 58 57 51 52 51 49 41 33 34 29 22 25 28 30 31 32 33 30 30 29 22 26 28 23 18 17 15 20 29 27 35 34 40 43 46 45 49 50 51 51 49 49 52 51 52 53 53 55 58 63 61 59 59 58 57 58 56 56 58 59 61 60 58 58 58 57 55 55 54 54 56 58
54 53 54 54 54 55 55 55 54 53 53 53 55 56 55 49 50 46 49 48 34 32 30 30 32 30 28 26 27 31 34 33 27 26 29 30 27 28 25 24 21 20 18 21 34 33 33 35 38 38 39 42 49 53 52 51 52 50 50 52 51 54 56 60 60 62 62 60 60 58 60 59 56 56 57 58 60 60 58 58 58 57 57 53 52 53 55 58
53 53 53 54 54 54 54 54 53 52 51 50 50 48 30 31 30 26 33 29 32 35 34 33 32 30 29 29 32 32 28 26 25 25 27 31 29 24 21 21 19 16 17 26 34 30 31 34 35 38 46 48 52 51 52 52 51 50 50 49 53 52 52 58 59 61 64 59 59 61 60 58 57 56 57 58 59 58 57 58 57 56 57 54 54 54 56 57
53 53 53 53 53 53 54 54 53 52 50 54 53 29 29 31 33 35 38 27 32 33 36 34 36 32 33 33 34 35 29 23 23 25 32 31 24 23 20 19 14 13 23 28 30 31 32 29 31 39 43 46 51 52 50 51 50 50 47 51 49 50 55 58 59 61 62 59 59 59 58 58 58 57 56 57 57 57 57 58 58 57 56 55 53 55 56 56
53 53 53 53 53 53 53 53 52 51 53 53 37 30 29 32 35 41 38 34 30 33 30 30 31 24 26 32 36 36 25 19 20 25 27 28 19 20 19 15 14 17 21 23 23 26 29 28 27 27 33 43 47 50 52 50 48 47 46 46 52 52 54 51 59 60 60 58 58 60 58 59 60 58 57 57 58 59 60 60 60 59 56 55 52 54 55 56
53 53 53 53 53 52 53 52 50 52 53 37 35 30 34 36 36 39 37 33 24 27 24 22 25 23 20 24 34 30 17 19 21 22 28 25 18 19 17 15 16 18 17 19 20 22 23 24 24 25 26 35 39 45 50 48 45 47 48 51 51 49 49 56 55 57 60 59 60 59 59 53 57 57 56 57 58 60 60 59 60 60 59 57 52 55 56 55
53 53 53 53 53 53 52 50 50 39 39 40 36 37 37 40 43 39 37 34 30 23 26 27 30 23 27 27 32 30 20 21 21 24 28 26 21 17 17 17 17 12 14 21 22 24 24 22 21 24 24 26 29 33 40 45 50 43 45 45 43 45 46 52 56 57 56 54 58 54 52 48 52 55 55 57 57 58 58 58 58 59 60 59 55 53 55 55
53 53 53 53 53 52 51 48 37 32 33 30 34 37 38 37 38 44 38 30 13 14 19 14 19 18 23 20 22 19 20 18 22 24 27 28 29 23 20 16 14 12 16 20 19 19 19 22 24 24 24 24 24 27 30 36 40 48 40 42 40 42 46 50 54 52 47 48 55 57 50 49 54 55 57 58 58 59 60 59 57 58 59 59 59 56 54 54
53 53 53 53 53 51 49 26 38 37 34 33 37 37 37 37 51 42 37 17 15 14 16 16 16 18 19 18 18 21 17 22 24 25 29 32 26 25 20 15 16 15 18 18 20 17 21 20 22 23 23 22 22 23 25 27 34 44 51 43 44 42 45 48 49 49 55 54 57 57 51 49 50 53 56 57 58 58 58 58 58 56 58 56 58 55 56 54
53 53 52 52 52 51 49 48 40 27 27 35 36 36 38 47 50 43 35 15 11 13 14 15 16 20 18 18 19 19 23 23 22 23 27 31 29 24 19 18 14 14 16 15 10 18 19 19 21 22 22 21 20 23 25 22 37 40 48 45 52 47 49 50 49 48 47 48 48 53 54 50 46 52 56 57 55 56 56 57 57 57 57 57 57 55 54 55
53 53 52 52 51 51 51 49 47 29 37 37 36 37 40 51 43 38 23 11 12 11 16 15 19 16 15 16 18 19 21 22 20 23 26 28 27 24 19 18 16 16 16 15 7 14 14 16 18 20 20 18 19 20 20 22 22 46 48 50 49 47 49 50 50 48 49 48 46 49 51 47 45 54 54 55 54 55 56 57 57 57 57 57 56 55 54 54
53 52 52 52 51 51 51 52 44 37 40 37 39 44 43 43 39 32 13 11 14 9 10 11 12 13 16 15 16 17 19 19 22 25 26 24 24 24 23 23 20 18 17 17 12 13 19 24 24 16 16 16 18 21 20 20 40 46 44 45 46 47 51 50 52 52 50 46 45 49 51 47 44 52 56 55 54 56 54 56 57 58 57 57 57 55 54 53
52 52 52 51 49 47 44 42 38 43 41 46 45 42 42 40 26 12 12 10 14 10 9 10 10 11 12 14 13 17 18 18 21 23 23 24 23 22 20 18 21 17 15 15 14 14 12 18 18 16 17 17 20 24 26 44 46 41 44 44 48 49 48 50 51 51 46 41 48 48 51 49 44 45 53 53 55 53 55 57 57 57 56 56 58 56 54 53
51 51 51 52 51 50 38 25 40 41 44 45 44 41 37 29 13 13 13 13 13 8 7 8 12 11 10 11 11 13 14 17 20 21 19 19 21 18 19 19 17 14 13 12 9 13 11 10 13 15 24 17 19 20 29 33 42 44 46 46 43 45 44 43 46 41 38 40 47 49 51 50 44 48 50 50 51 52 53 53 55 56 56 55 55 57 56 53
51 51 51 51 51 49 46 49 48 50 46 44 44 36 32 17 17 10 7 7 8 10 10 15 10 11 12 11 12 14 15 15 20 20 21 19 18 16 18 18 18 17 15 14 10 9 9 11 11 17 20 22 20 19 32 36 43 39 39 47 44 39 38 36 38 40 41 43 46 49 52 47 47 50 53 53 56 55 56 57 56 55 57 57 56 56 56 55
50 51 53 53 51 49 50 55 51 48 41 43 41 24 16 12 14 22 14 10 9 11 11 8 10 13 12 10 14 15 15 17 18 18 19 19 15 15 14 16 17 16 16 15 9 8 7 13 12 18 15 21 20 17 29 30 40 36 43 42 44 39 35 37 40 37 38 41 46 51 46 41 42 56 54 56 57 58 58 57 58 58 57 58 57 56 56 56
49 51 54 54 52 51 50 50 52 49 42 38 31 18 14 15 12 11 10 9 11 11 11 10 12 12 12 13 14 15 16 16 19 17 18 16 14 15 15 16 20 18 16 16 14 18 12 15 14 15 22 21 17 16 23 23 34 38 41 40 40 39 37 35 39 42 44 42 45 47 44 45 47 57 55 57 54 57 58 58 57 57 58 57 57 59 59 56
50 55 52 52 49 51 49 50 51 47 43 34 22 17 10 13 11 8 13 16 14 13 12 11 11 11 10 12 16 16 17 17 18 18 16 16 17 16 18 17 17 18 16 15 18 16 15 12 19 20 19 23 19 19 20 26 28 39 39 36 36 39 37 38 39 42 43 43 41 46 41 43 51 52 51 56 55 57 58 58 57 56 57 58 58 58 58 58
48 51 48 42 46 49 51 51 49 46 42 29 20 14 15 11 13 13 21 19 16 13 10 10 13 12 12 11 13 14 14 17 17 16 17 18 16 17 17 17 18 19 19 20 17 18 18 14 18 20 18 22 24 32 29 27 27 45 36 36 40 39 39 39 44 42 42 40 40 39 37 44 40 49 53 54 54 56 57 58 59 58 57 57 58 59 60 60
50 42 45 39 42 49 52 51 47 44 33 23 20 29 17 15 15 16 20 19 17 11 10 12 14 15 12 11 10 11 13 14 16 17 13 16 11 18 16 16 17 18 20 20 21 20 20 16 16 20 19 24 30 36 39 38 40 33 28 37 32 33 34 34 39 36 36 33 35 36 37 40 41 51 51 53 54 57 58 58 59 57 56 57 57 58 61 62
52 39 31 40 44 47 48 51 48 41 31 22 22 22 18 19 20 18 21 20 17 12 9 12 13 16 16 11 13 12 13 12 16 15 17 17 14 17 16 16 17 20 22 20 18 19 22 18 18 21 18 23 24 33 36 33 36 35 38 34 31 35 32 38 41 40 38 36 39 36 32 41 49 51 53 53 56 59 59 58 57 58 57 56 57 58 60 62
40 26 28 41 46 48 53 48 40 30 25 22 19 15 21 17 16 18 21 19 14 12 12 13 15 14 15 15 15 12 13 14 14 16 15 18 17 16 17 16 16 18 20 23 22 19 22 26 26 21 29 27 25 28 35 33 34 32 33 33 33 32 31 33 37 36 35 36 33 31 30 47 53 57 55 58 58 59 61 60 59 59 60 57 56 58 60 62
39 33 33 41 44 49 48 44 29 25 25 25 23 23 20 16 16 16 19 19 13 11 11 13 13 14 17 16 15 15 15 14 15 15 15 17 16 17 16 19 19 17 18 19 21 22 23 23 21 20 20 25 28 33 28 30 33 32 31 36 32 29 30 29 30 29 29 32 32 32 29 49 56 56 58 58 60 61 62 61 61 59 58 61 59 58 60 62
32 21 32 44 47 46 45 25 21 28 24 22 18 20 24 34 20 17 14 15 12 8 10 14 17 16 18 17 18 17 17 14 15 16 16 13 18 18 17 21 24 21 18 19 19 24 28 26 22 35 32 22 25 28 32 30 32 35 30 30 32 32 29 30 29 38 26 27 28 31 30 47 55 57 58 59 61 62 62 62 61 61 62 62 61 59 61 63
29 30 36 45 45 44 38 22 32 29 20 20 24 22 23 23 18 17 13 11 8 8 10 11 15 16 18 20 19 16 18 17 18 16 16 16 17 19 22 25 27 20 19 18 21 27 45 30 24 21 28 27 31 34 36 38 35 29 36 42 34 30 26 29 32 30 23 26 27 28 29 46 56 59 60 61 62 63 63 63 63 62 63 64 66 67 66 64
38 37 36 43 48 44 36 22 24 21 18 28 26 24 23 21 19 16 12 11 8 7 7 9 14 17 23 21 19 18 20 19 17 17 18 19 18 22 23 30 26 18 19 21 22 31 23 38 26 26 28 29 25 30 31 34 32 34 39 43 45 44 38 34 31 32 27 22 28 28 28 50 57 59 60 62 61 61 63 63 64 63 64 64 65 66 66 67
45 40 35 38 44 41 30 22 21 19 22 26 27 23 23 23 21 19 15 9 10 8 9 9 13 17 19 22 23 21 20 20 20 17 20 18 18 21 25 34 31 28 27 39 46 26 23 30 33 28 24 27 24 26 35 28 32 40 42 44 46 42 39 43 26 29 25 41 33 24 40 51 54 58 59 60 60 61 63 63 63 64 64 65 65 66 66 66
32 35 30 34 36 36 37 39 34 28 29 30 25 23 22 17 13 12 16 11 9 11 12 15 16 17 19 18 19 18 19 20 19 21 20 17 18 20 25 33 41 32 45 49 43 37 35 35 38 44 29 28 33 39 38 38 39 42 39 42 42 41 43 39 33 25 22 35 37 40 50 51 52 56 58 59 60 61 61 62 62 62 63 63 65 65 66 66
41 34 42 35 38 34 34 36 32 31 26 30 28 24 20 15 12 10 10 11 14 14 15 14 17 15 20 16 16 17 18 18 22 22 22 18 20 19 22 31 35 42 54 44 46 35 37 31 41 44 36 35 38 40 39 39 37 41 39 40 41 41 41 36 29 28 49 30 23 50 53 48 51 55 57 59 60 61 62 61 61 61 62 63 64 65 65 66
37 43 45 50 41 36 34 33 39 36 35 30 29 25 21 17 13 14 10 11 16 18 13 19 17 14 15 16 21 18 22 23 25 21 22 23 20 18 18 21 23 43 47 28 32 35 32 30 40 40 38 38 42 38 37 36 36 37 39 40 41 42 44 40 43 42 46 35 25 50 52 52 52 53 56 59 60 61 61 61 62 62 63 63 64 64 64 65
36 32 38 47 44 41 42 43 41 42 40 32 34 30 25 20 15 12 12 10 12 18 13 20 16 14 14 16 20 23 29 21 23 30 29 23 20 22 19 19 20 22 25 25 27 43 36 32 39 40 42 41 40 39 37 35 35 35 37 40 40 40 42 45 45 45 42 50 50 49 52 52 54 58 59 59 59 60 60 62 61 62 62 63 64 64 64 65
40 39 39 38 35 33 38 42 42 41 36 43 37 31 26 26 20 15 12 13 14 14 15 14 13 14 15 18 26 23 25 22 25 26 26 25 23 25 23 22 20 21 20 22 24 40 37 41 44 37 41 42 40 39 40 36 35 37 39 40 40 42 44 46 47 47 47 47 50 51 52 54 58 60 59 60 60 60 60 59 61 62 62 62 63 64 64 65
46 50 53 47 36 32 40 38 40 40 37 39 34 34 32 29 23 25 23 14 14 18 16 13 12 18 22 23 23 19 18 23 23 19 23 22 20 22 23 24 20 22 20 24 24 27 28 34 40 37 34 37 37 38 37 34 33 35 39 40 41 39 40 40 45 48 48 49 49 49 49 52 57 59 59 59 59 59 59 59 60 61 62 62 62 63 63 63
50 51 52 51 40 48 31 38 39 38 33 33 36 37 35 30 34 30 25 19 16 17 18 14 14 17 25 25 24 20 18 18 18 19 21 17 16 18 19 21 19 24 23 22 29 24 27 33 33 29 25 30 34 34 33 33 32 29 34 43 45 46 45 48 51 52 51 49 48 46 49 56 58 58 57 58 58 58 58 58 59 60 61 61 62 62 62 62